Brownsville South Padre Island International Airport Brownsville US
ICAO: KBRO
IATA: BRO
Category: Medium
Scheduled Services: Yes

Elevation: 22 ft
TransAlt. 18000 ft.

Airport Communications:
VALLEY APP/DEP:119.5
ATIS:128.55
CTAF:118.9
GND:121.9
SAN ANGELO RDO:122.3
TWR:118.9
UNICOM:122.95

KBRO Zoom In..

Runways:

(A) RW 13L length 3000 ft width 75 ft
---- / hdg 128

(B) RW 13R length 7399 ft width 150 ft
ILS 110.30 / hdg 128

(C) RW 17 length 6000 ft width 150 ft
---- / hdg 175

(D) RW 31L length 7399 ft width 150 ft
---- / hdg 308

(E) RW 31R length 3000 ft width 75 ft
---- / hdg 308

(F) RW 35 length 6000 ft width 150 ft
---- / hdg 355

Location; KBRO
Day. 20 / Time. 19.53 Zulu
* Altimeter: 29.93
* Temperature: 36° c. 96.8°f.
* Wind from: 140° Speed 19 kn with Gusts up to 24 kn.
Dewpoint: 23° c.
Visibility: 10 Statute Miles.
Clouds: Clear (automated report).

KBRO 201953Z 14019G24KT 10SM CLR 36/23 A2993 RMK AO2 SLP135 T03610228


Wind From 140°
Speed 19 kn.

 
 
jpsmedia.com for Web Design worldairports.se 2018   terms of use